Tracking 31027 objects as of 19-Jul-2025
HD Live streaming from Space Station
objects crossing your sky now

PSLV R/B

Track PSLV R/B now!
10-day predictions


NORAD ID: 41242
Int'l Code: 2016-003B
Perigee: 332.5 km
Apogee: 20,341.6 km
Inclination: 19.1 °
Period: 358.2 minutes
Semi major axis: 16708 km
RCS: Unknown
Launch date: January 20, 2016
Source: India (IND)
Launch site: SRIHARIKOTA (SRI)

Note: This is a ROCKET BODY
Your satellite tracking list
Your tracking list is empty




NASA's NSSDC Master Catalog

Two Line Element Set (TLE):
1 41242U 16003B   25199.12069997  .00000865  00000-0  32605-3 0  9990
2 41242  19.1053 337.9902 5987889  17.3112 356.4260  4.01989375137256
Source of the keplerian elements: AFSPC